Volver al catálogo

STARLINK-36303

ActivoComunicacionesVLEO
NORAD 68969·PAYLOAD·🇺🇸 United States

Lanzado May 1, 2026 desde Cape Canaveral Space Force Station

Loading…

Próximos Pases (próximas 24 horas)

TLE

ActualizadoSource: CelesTrak SupGP

Época: Sep 15, 2026, 04:30 UTC

1 68969C 26099U   26258.18798611 -.00028643  00000+0 -84645-3 0  2580
2 68969  53.1565 100.4573 0001196  91.1843 172.3209 15.34398130    10

Sigue STARLINK-36303 en tiempo real con AllMySat

Download on the App Store